Content
SEND FEEDBACK

Daily
Averages
Monthly
Summary
Canada

MONTREAL TRUDEAU AIRPORT, QUEBEC


Home > North America > Canada > Quebec
Elevation: 118 feet     Latitude: 45 28N     Longitude: 73 45W

WEATHER
 
SELECT A DAY
Number of Records: 198,515;   Date Range: 1/1/95 - 8/26/14
 
SHARE

PRINT THIS DATA

[ ← Previous Day ]
WEATHER ALMANAC - FEBRUARY 1, 2013
[ Next Day → ]
[ °C ]   °F
Weather ElementAverageHighLow
Temperature8.5 °F10.4 °F (1:00 am)6.8 °F (7:00 am)
Dewpoint-2.4 °F1.4 °F (1:00 am)-7.6 °F (11:00 pm)
Humidity58.8 %72 % (10:00 am)37 % (7:00 pm)
Barometer26.79 in30.14 in (11:00 pm) (7:00 pm)
Wind Speed15.1 mph20.7 mph (11:56 am)
Wind Gust27.6 mph (6:00 am)
Weather ElementAverage
Visibility13.8 mi
Wind DirectionW (271 °)

Weather ElementTotal
Precipitation---
Heating Degree Days56.4 (Base 65)
Averaged from 29 records on February 1, 2013
WEATHER CONDITIONS BREAKOUT
WIND DIRECTION BREAKOUT
WEATHER BY HOUR - FEBRUARY 1, 2013
[ °C ]   °F
Local TimeTemperatureDewpointHumidityBarometerVisibilityWind DirectionWind SpeedGust SpeedPrecipitationEventsConditions
1:00 AM10.4 °F1.4 °F67 %29.58 in15.0 miWest (280°)12.7 mph18.4 mphMostly Cloudy
2:00 AM10.4 °F-0.4 °F62 %29.62 in15.0 miWest (270°)17.3 mph26.5 mphMostly Cloudy
3:00 AM8.6 °F-0.4 °F67 %29.64 in15.0 miWest (270°)17.3 mph26.5 mphMostly Cloudy
4:00 AM8.6 °F-2.2 °F62 %29.66 in15.0 miWest (260°)13.8 mph23.0 mphOvercast
5:00 AM8.6 °F-2.2 °F62 %29.68 in15.0 miWest (270°)15.0 mph23.0 mphOvercast
6:00 AM8.6 °F-2.2 °F62 %29.71 in15.0 miWest (260°)19.6 mph27.6 mphMostly Cloudy
7:00 AM6.8 °F-2.2 °F67 %29.75 in15.0 miWest (270°)19.6 mph25.3 mphOvercast
7:00 AM7.0 °F-3.0 °F50 %29.75 in15.0 miWest (270°)18.4 mphOvercast
7:51 AM6.8 °F0.0 °F15.0 miWest (280°)15.0 mph23.0 mphSnowLight Snow Showers
8:00 AM6.8 °F-2.2 °F67 %29.80 in15.0 miWest (280°)15.0 mph20.7 mphOvercast
9:00 AM6.8 °F-2.2 °F67 %29.83 in15.0 miWest (270°)15.0 mph20.7 mphSnowLight Snow
9:43 AM6.8 °F0.0 °F2.5 miWest (260°)15.0 mph23.0 mphSnowLight Snow
10:00 AM6.8 °F-0.4 °F72 %29.87 in3.0 miWest (260°)12.7 mph20.7 mphSnowLight Snow
11:00 AM8.6 °F-0.4 °F67 %29.90 in5.0 miWest (260°)18.4 mph25.3 mphSnowLight Snow
11:56 AM8.6 °F0.0 °F15.0 miWest (260°)20.7 mphMostly Cloudy
12:00 PM8.6 °F-2.2 °F62 %29.90 in15.0 miWest (270°)20.7 mphMostly Cloudy
1:00 PM9.0 °F-2.0 °F47 %29.92 in15.0 miWest (270°)16.1 mphPartly Cloudy
1:00 PM8.6 °F-2.2 °F62 %29.92 in15.0 miWest (280°)15.0 mph23.0 mphMostly Cloudy
2:00 PM8.6 °F-2.2 °F62 %29.93 in15.0 miWest (260°)19.6 mphMostly Cloudy
3:00 PM10.4 °F-2.2 °F57 %29.95 in15.0 miWest (260°)16.1 mph24.2 mphMostly Cloudy
4:00 PM10.4 °F-2.2 °F57 %29.96 in15.0 miWSW (250°)17.3 mph25.3 mphMostly Cloudy
5:00 PM10.4 °F-4.0 °F52 %29.99 in15.0 miWest (270°)16.1 mph24.2 mphScattered Clouds
6:00 PM10.4 °F-4.0 °F52 %30.02 in15.0 miWest (260°)13.8 mphPartly Cloudy
7:00 PM9.0 °F-5.0 °F37 %30.04 in15.0 miWest (280°)11.5 mphClear
7:00 PM8.6 °F-4.0 °F57 %30.04 in15.0 miWest (270°)12.7 mphPartly Cloudy
8:00 PM8.6 °F-4.0 °F57 %30.06 in15.0 miWNW (290°)6.9 mphPartly Cloudy
9:00 PM8.6 °F-5.8 °F52 %30.09 in15.0 miWNW (300°)8.1 mphMostly Cloudy
10:00 PM8.6 °F-5.8 °F52 %30.12 in15.0 miWNW (300°)8.1 mphMostly Cloudy
11:00 PM6.8 °F-7.6 °F52 %30.14 in15.0 miWest (280°)10.4 mphPartly Cloudy
Hourly data recorded from CYUL, located miles away from Montreal Trudeau Airport, Quebec







STORIES FROM OUR PARTNERS